| time (UTC) | temp F | wind direction | speed MPH | gust MPH | rain 1hr in | rain 24hr in | rain mn in | humidity % | barometer mb |
| 20260506071130 | 53 | 306 | 0.0 | 0.0 | 0.00 | 0.31 | 0.00 | 82 | 997.0 |
| 20260506061050 | 51 | 306 | 0.0 | 0.0 | 0.00 | 0.31 | 0.00 | 85 | 997.0 |
| 20260506051010 | 51 | 306 | 0.0 | 0.0 | 0.00 | 0.31 | 0.00 | 85 | 997.0 |
| 20260506043950 | 51 | 306 | 0.0 | 0.0 | 0.00 | 0.31 | 0.00 | 85 | 997.0 |
| 20260506040930 | 51 | 306 | 0.0 | 0.0 | 0.00 | 0.31 | 0.00 | 85 | 1041.0 |
| 20260506033909 | 52 | 306 | 0.0 | 0.0 | 0.00 | 0.31 | 0.00 | 85 | 997.0 |
| 20260506030850 | 52 | 306 | 0.0 | 0.0 | 0.00 | 0.31 | 0.00 | 84 | 997.0 |
| 20260506023830 | 52 | 306 | 0.0 | 0.0 | 0.00 | 0.31 | 0.00 | 83 | 997.0 |
| 20260506020809 | 52 | 306 | 0.0 | 0.0 | 0.00 | 0.31 | 0.00 | 83 | 997.0 |
| 20260506013749 | 53 | 306 | 0.0 | 0.0 | 0.00 | 0.31 | 0.00 | 83 | 997.0 |
| 20260506010728 | 53 | 306 | 0.0 | 0.0 | 0.00 | 0.31 | 0.00 | 83 | 997.0 |
| 20260506003708 | 53 | 307 | 0.0 | 0.0 | 0.00 | 0.31 | 0.00 | 84 | 998.0 |
| 20260506000648 | 53 | 306 | 0.0 | 0.0 | 0.00 | 0.31 | 0.00 | 85 | 998.0 |
| 20260505233629 | 53 | 306 | 0.0 | 0.0 | 0.00 | 0.31 | 0.00 | 84 | 998.0 |
| 20260505224544 | 52 | 306 | 0.0 | 0.0 | 0.00 | 0.35 | 0.00 | 85 | 998.0 |
| 20260505221532 | 52 | 306 | 0.0 | 0.0 | 0.00 | 0.35 | 0.00 | 85 | 998.0 |
| 20260505214519 | 52 | 306 | 0.0 | 0.0 | 0.00 | 0.35 | 0.35 | 85 | 998.0 |
| 20260505211505 | 52 | 306 | 0.0 | 0.0 | 0.00 | 0.35 | 0.35 | 85 | 998.0 |
| 20260505204452 | 53 | 306 | 0.0 | 0.0 | 0.00 | 0.35 | 0.35 | 85 | 998.0 |
| 20260505201439 | 54 | 306 | 0.0 | 0.0 | 0.00 | 0.35 | 0.35 | 83 | 997.0 |
| 20260505194426 | 55 | 305 | 0.0 | 0.0 | 0.00 | 0.35 | 0.35 | 79 | 997.0 |
| 20260505191412 | 56 | 306 | 0.0 | 0.0 | 0.00 | 0.35 | 0.35 | 77 | 997.0 |
| 20260505184359 | 56 | 306 | 0.0 | 0.0 | 0.00 | 0.35 | 0.35 | 75 | 997.0 |
| 20260505181346 | 57 | 306 | 0.0 | 0.0 | 0.04 | 0.35 | 0.35 | 68 | 997.0 |
| 20260505174333 | 57 | 306 | 0.0 | 0.0 | 0.04 | 0.35 | 0.35 | 67 | 997.0 |
| 20260505171320 | 56 | 312 | 0.0 | 3.0 | 0.00 | 0.31 | 0.31 | 65 | 997.0 |
| 20260505164306 | 58 | 357 | 0.0 | 0.0 | 0.12 | 0.31 | 0.31 | 68 | 997.0 |
| 20260505161252 | 59 | 320 | 0.0 | 0.0 | 0.12 | 0.31 | 0.31 | 63 | 997.0 |
| 20260505151226 | 65 | 329 | 0.0 | 0.0 | 0.00 | 0.20 | 0.20 | 48 | 997.0 |